Terminal Aerodrome Forecast
Issued by NWS Wilmington, OH

Current Version | Previous Version | Graphics & Text | Print | Product List | Glossary Off
Versions: 1 2 3 4 5 6 7 8 9 10 11 12 13 14 15 16 17 18 19 20 21 22 23 24 25

000
FTUS41 KILN 010500
TAFCVG
TAF
KCVG 010534Z 0106/0212 03007KT P6SM FEW015
     FM010800 04004KT P6SM SCT015
     FM011000 VRB03KT 4SM BR SCT010
     FM011200 08006KT P6SM SCT250
     FM020000 11004KT P6SM SKC=

USA.gov is the U.S. government's official web portal to all federal, state and local government web resources and services.